TimeHST,TemperatureF,Dew PointF,Humidity,Sea Level PressureIn,VisibilityMPH,Wind Direction,Wind SpeedMPH,Gust SpeedMPH,PrecipitationIn,Events,Conditions,WindDirDegrees,DateUTC
12:53 AM,70.0,68.0,93,30.07,7.0,Calm,Calm,-,0.00,Rain,Light Rain,0,2011-11-04 10:53:00
1:49 AM,69.8,66.2,88,30.07,7.0,ESE,8.1,-,0.01,,Overcast,120,2011-11-04 11:49:00
1:53 AM,70.0,66.9,90,30.07,3.0,ENE,9.2,-,0.01,Rain,Heavy Rain,60,2011-11-04 11:53:00
2:00 AM,69.8,66.2,88,30.07,2.5,East,13.8,19.6,0.06,Rain,Light Rain,90,2011-11-04 12:00:00
2:08 AM,68.0,64.4,88,30.07,6.0,ENE,13.8,23.0,0.06,Rain,Light Rain,70,2011-11-04 12:08:00
2:14 AM,68.0,64.4,88,30.07,9.0,East,13.8,23.0,0.06,Rain,Light Rain,80,2011-11-04 12:14:00
2:48 AM,68.0,64.4,88,30.08,2.0,ENE,15.0,24.2,0.11,Rain,Heavy Rain,70,2011-11-04 12:48:00
2:53 AM,68.0,66.0,93,30.08,2.5,ENE,17.3,23.0,0.14,Rain,Heavy Rain,70,2011-11-04 12:53:00
3:02 AM,66.2,64.4,94,30.09,1.2,NNE,9.2,23.0,0.20,Rain-Thunderstorm,Heavy Thunderstorms and Rain,20,2011-11-04 13:02:00
3:19 AM,68.0,64.4,88,30.09,2.5,North,9.2,-,0.52,Rain-Thunderstorm,Heavy Thunderstorms and Rain,10,2011-11-04 13:19:00
3:26 AM,68.0,66.2,94,30.09,4.0,NE,11.5,-,0.54,Rain-Thunderstorm,Thunderstorms and Rain,50,2011-11-04 13:26:00
3:40 AM,68.0,64.4,88,30.10,10.0,NNE,3.5,-,0.57,Rain-Thunderstorm,Light Thunderstorms and Rain,20,2011-11-04 13:40:00
3:53 AM,68.0,64.9,90,30.10,6.0,Calm,Calm,-,0.58,Rain-Thunderstorm,Thunderstorms and Rain,0,2011-11-04 13:53:00
4:18 AM,66.2,64.4,94,30.10,7.0,SW,8.1,-,0.04,Rain-Thunderstorm,Light Thunderstorms and Rain,230,2011-11-04 14:18:00
4:28 AM,66.2,64.4,94,30.10,10.0,WSW,8.1,-,0.05,Rain-Thunderstorm,Light Thunderstorms and Rain,240,2011-11-04 14:28:00
4:53 AM,68.0,64.0,87,30.09,8.0,WSW,5.8,-,0.10,Rain-Thunderstorm,Light Thunderstorms and Rain,250,2011-11-04 14:53:00
5:05 AM,66.2,64.4,94,30.10,7.0,SW,6.9,-,0.02,Rain,Rain,230,2011-11-04 15:05:00
5:28 AM,68.0,64.4,88,30.10,7.0,SW,3.5,-,0.06,Rain,Rain,230,2011-11-04 15:28:00
5:53 AM,68.0,64.0,87,30.10,8.0,SW,4.6,-,0.10,Rain,Light Rain,220,2011-11-04 15:53:00
6:23 AM,69.8,64.4,83,30.11,10.0,West,5.8,-,0.04,Rain,Light Rain,270,2011-11-04 16:23:00
6:53 AM,69.1,64.0,84,30.09,10.0,SSW,4.6,-,0.05,Rain,Light Rain,200,2011-11-04 16:53:00
7:53 AM,69.1,64.0,84,30.09,10.0,SSW,4.6,-,0.00,,Mostly Cloudy,200,2011-11-04 17:53:00
8:53 AM,71.1,64.9,81,30.10,10.0,Calm,Calm,-,N/A,,Mostly Cloudy,0,2011-11-04 18:53:00
9:53 AM,73.0,66.0,79,30.12,10.0,Calm,Calm,-,0.00,Rain,Light Rain,0,2011-11-04 19:53:00
10:53 AM,73.9,66.0,76,30.10,10.0,West,8.1,-,0.00,,Overcast,260,2011-11-04 20:53:00
11:11 AM,75.2,66.2,73,30.10,10.0,NW,3.5,-,N/A,,Overcast,310,2011-11-04 21:11:00
11:29 AM,78.8,66.2,65,30.09,10.0,NW,6.9,-,N/A,,Mostly Cloudy,320,2011-11-04 21:29:00
11:53 AM,79.0,66.9,66,30.08,10.0,WNW,4.6,-,N/A,,Mostly Cloudy,300,2011-11-04 21:53:00
12:53 PM,81.0,66.9,62,30.06,10.0,Variable,5.8,-,N/A,,Mostly Cloudy,0,2011-11-04 22:53:00
1:53 PM,80.1,66.9,64,30.04,10.0,Variable,3.5,-,N/A,,Mostly Cloudy,0,2011-11-04 23:53:00
2:53 PM,78.1,66.9,68,30.03,10.0,ENE,6.9,-,N/A,,Mostly Cloudy,60,2011-11-05 00:53:00
3:53 PM,78.1,66.9,68,30.03,10.0,ENE,9.2,-,N/A,,Mostly Cloudy,60,2011-11-05 01:53:00
4:53 PM,77.0,66.9,71,30.04,10.0,NE,4.6,-,N/A,,Mostly Cloudy,50,2011-11-05 02:53:00
5:53 PM,75.9,68.0,76,30.05,10.0,Calm,Calm,-,N/A,,Overcast,0,2011-11-05 03:53:00
6:53 PM,75.9,66.9,74,30.06,10.0,Calm,Calm,-,0.00,,Overcast,0,2011-11-05 04:53:00
7:17 PM,73.4,68.0,83,30.07,10.0,East,6.9,-,N/A,,Overcast,90,2011-11-05 05:17:00
7:41 PM,73.4,68.0,83,30.08,10.0,ESE,8.1,-,0.01,,Overcast,110,2011-11-05 05:41:00
7:53 PM,73.0,68.0,84,30.09,10.0,East,8.1,-,0.01,,Overcast,100,2011-11-05 05:53:00
8:53 PM,72.0,68.0,87,30.09,10.0,WSW,5.8,-,N/A,,Overcast,240,2011-11-05 06:53:00
9:53 PM,72.0,66.9,84,30.09,10.0,SW,4.6,-,N/A,,Overcast,220,2011-11-05 07:53:00
10:53 PM,71.1,64.9,81,30.09,10.0,SW,8.1,-,N/A,,Mostly Cloudy,230,2011-11-05 08:53:00
11:53 PM,71.1,64.9,81,30.06,10.0,SW,6.9,-,0.00,,Overcast,230,2011-11-05 09:53:00